Regional Weather Roundup
Issued by NWS

Home | Current Version | Previous Version | Text Only | Print | Product List | Glossary Off
Versions: 1 2 3 4 5 6 7 8 9 10 11 12 13 14 15 16 17 18 19 20 21 22 23 24 25 26 27 28 29 30 31 32 33 34 35 36 37 38 39 40 41 42 43 44 45 46 47 48 49 50

596
ASUS45 KCYS 202010
RWRWY

WYOMING REGIONAL WEATHER ROUNDUP
NATIONAL WEATHER SERVICE CHEYENNE WY
200 PM MDT FRI APR 20 2018

NOTE:  "FAIR" INDICATES FEW OR NO CLOUDS BELOW 12,000 FEET
WITH NO SIGNIFICANT WEATHER AND/OR OBSTRUCTIONS TO VISIBILITY.

WYZ001-202100-
YELLOWSTONE NATIONAL PARK

CITY           SKY/WX    TMP DP  RH WIND       PRES   REMARKS
LK YELLOWSTONE   N/A     49  17  28 MISG      30.11S
W YELLOWSTONE  NOT AVBL

$$
WYZ002>013-054>058-071-098>099-202100-
NORTHERN WYOMING

CITY           SKY/WX    TMP DP  RH WIND       PRES   REMARKS
JACKSON        FAIR      57  20  23 N15G24    30.00S
CODY           FAIR      59  30  33 N22G31    30.03S
GREYBULL       FAIR      65  34  31 N15G22    29.94F
WORLAND        FAIR      61  35  37 N14       29.96F
SHERIDAN       FAIR      59  33  37 NE8G16    30.05F
BUFFALO        FAIR      56  32  40 NE12      30.07S
GILLETTE         N/A     51  31  46 SE10      30.08R
HULETT         CLOUDY    52  32  46 CALM      30.10R
NEWCASTLE      FAIR      52  30  43 SE17G28   30.08F

$$
WYZ014>020-022>026-101>103-202100-
CENTRAL WYOMING

CITY           SKY/WX    TMP DP  RH WIND       PRES   REMARKS
BIG PINEY      FAIR      59  19  21 E9G18     29.95F
PINEDALE       FAIR      57  21  24 E18G28    29.97S
DUBOIS         MOCLDY    57  18  21 SE15G23   29.98S
LANDER         CLOUDY    55  30  38 N16G23    29.97S
RIVERTON       FAIR      57  31  37 N14G24    29.98F
CASPER         CLOUDY    45  33  63 N17       30.00F
DOUGLAS        FAIR      49  30  48 SE14      30.03S

$$
WYZ021-027>030-104>119-202100-
SOUTHERN WYOMING

CITY           SKY/WX    TMP DP  RH WIND       PRES   REMARKS
EVANSTON       CLOUDY    43  31  62 VRB6      30.03R
KEMMERER       FAIR      48  32  53 SW9G16    30.00F
FORT BRIDGER   FAIR      40  37  89 S10       30.04S WCI  34
ROCK SPRINGS   CLOUDY    48  23  37 NE24G35   29.94F
DIXON          CLOUDY    47  32  57 NE3       29.89F
RAWLINS        CLOUDY    43  29  57 N17       29.94F
SARATOGA       MOCLDY    50  25  37 N16G32    29.88S
LARAMIE        CLOUDY    42  26  53 SE17      29.92R
CHEYENNE       CLOUDY    43  33  68 SE23G29   29.95S
TORRINGTON     CLOUDY    41  34  76 SE20G26   30.04S
PINE BLUFFS    CLOUDY    37  32  81 MISG      30.00S

$$




USA.gov is the U.S. government's official web portal to all federal, state and local government web resources and services.